Location: Allentsteig
(48.6833°N, 15.3167°E)
Time: 17:10:53
(UTC+00:00)

Lacrosse 5 rocket - Pass Details

Date: 18 September 2020
Orbit: 460 x 636 km, 57.0° (Epoch: 29 October)

Event Time Altitude Azimuth Distance (km) Brightness Sun altitude
Rises 19:48:00 0° 290° (WNW) 2,805 6.1 -26.0°
Reaches altitude 10° 19:50:29 10° 302° (WNW) 1,934 5.1 -26.3°
Maximum altitude 19:54:19 28° 2° (N) 1,163 3.2 -26.8°
Enters shadow 19:55:09 26° 21° (NNE) 1,216 3.2 -26.9°
